Wall of Fame

Het Mysterie van de Haven

Groepsnaam Tijd over Aantal hints
1 Kluitland 01:46:16 3
2 Unicorns 01:13:18 0
3 Zegwat 01:11:13 6
4 Malestein 01:10:20 0
5 Team 414 01:09:44 3
6 Bijna sexy 01:09:12 0
7 Toevankjes 01:08:34 1
8 Jut en Juul 01:08:32 1
9 Majomiri 01:07:15 0
10 autobuddys 01:06:54 0
11 Wollys 01:06:24 0
12 Vogelbuurt 01:05:09 0
13 Blekbal 01:04:20 4
14 Bestuur Panacea 2018 01:03:41 0
15 De mannen Dalfsen 01:03:39 0
16 Vivino's 01:02:35 0
17 Wilde jongelingen 01:01:14 0
18 Da potato family 01:00:30 3
19 Mathaak 01:00:29 0
20 De Flitsmeisters 01:00:23 1
21 Mulder en co 00:59:57 0
22 Havenmeesters van de matestraat 00:59:39 0
23 SmartBarth 00:59:09 0
24 TOG op pad 00:58:30 0
25 Bull 00:56:18 0
26 Bouma’s 00:55:30 0
27 De Noorderlingen 2 00:55:27 2
28 The Turning Bitches 00:55:15 0
29 Tantalus 00:54:40 4
30 De withaartjes 00:54:37 0
31 Jozuahaaltdesnacks 00:54:18 0
32 Spruitjes 00:54:06 1
33 NYE_Toppers! 00:53:03 0
34 DeKraaien 00:52:45 0
35 Gilse Club 00:52:27 3
36 Bruggies 00:52:04 2
37 MAK Search Team 00:51:54 1
38 VEM 00:51:36 2
39 The Black Purrrr 00:51:21 3
40 Uildriks 00:51:15 0
41 De Streek 00:50:50 1
42 Marina's Bultjes 00:50:37 0
43 Rijn 00:49:57 3
44 Commissaris Blauw 32 00:49:54 0
45 De Leo’s 00:49:40 0
46 Clown Kees 00:49:35 0
47 Schoorlsafari 00:49:04 0
48 De wilde Vaart 00:48:42 0
49 Teddje 00:48:10 2
50 Bolk 00:48:03 0
51 Spijkerrevanche 00:47:45 7
52 zalk 00:46:57 2
53 Team Rijnsburg 00:46:50 0
54 Sinterkerstennieuw 00:46:49 0
55 Tukkers Nieland 00:46:41 1
56 GreenDucks 00:46:32 2
57 The Escapistaches 00:46:30 0
58 De vochtige Ari’s 00:46:25 0
59 Doarseveld 00:46:14 3
60 De avocado's 00:46:01 1
61 FC RISC 00:45:56 0
62 De Engeltjes 00:45:45 3
63 Kroese 00:45:36 0
64 Hagen 00:45:26 0
65 Hazelnootjes 00:45:06 0
66 De Nachtbrakers 00:44:54 1
67 HoogeVenlo 00:44:39 2
68 Hsj 00:44:29 10
69 TeamXBeks 00:44:25 5
70 M&M 00:43:52 3
71 De van der Bentjes 00:43:50 7
72 te pakk'n 00:43:47 0
73 Met z'n biertjes 00:43:27 0
74 Boekenpootje 00:43:18 1
75 De Akkermannen 00:43:13 1
76 Bruintjes 00:43:05 2
77 Wenterse genieters 00:42:42 1
78 De drie koffieriers 00:42:42 1
79 Zijlmaatjes 00:42:27 4
80 Koeienlovers 00:41:43 2
81 De dikke bankzitters 00:41:42 4
82 Bungalow Xxx 00:41:41 0
83 De wijsneuzen 00:41:29 1
84 Caljé 00:41:20 5
85 Glas 00:41:12 1
86 Groepje 00:40:58 2
87 MvAVermaak.nl 00:40:53 1
88 De Strikwerda's 00:40:52 3
89 Team Detective 00:40:46 0
90 Paashaas 00:40:31 5
91 Remida 00:40:08 2
92 Familyfuntime 00:40:04 1
93 Bro’s before ho’s 00:40:03 0
94 The Jaggermen 00:39:55 0
95 ThoJo 00:39:47 2
96 Flanmika Rijssen 00:39:21 0
97 SiJiSen 00:39:15 1
98 zeelsterhut 00:39:14 0
99 De sjeezers 00:39:11 1
100 Witte Wieven 00:39:10 0
101 Hokkie's 00:39:09 1
102 Goutier 00:38:48 1
103 Nijzinkbende 00:38:47 6
104 MenM 00:38:39 0
105 ReSuNo 00:38:32 0
106 Hamse gezelligheid 00:38:22 2
107 hartogjes 00:38:15 2
108 Keyless 00:37:57 0
109 Chicks b4 dicks 00:37:39 1
110 Kroontjes 00:37:35 0
111 De ijsvogeltjes 715 00:37:21 0
112 Team de Vrueh 00:36:54 3
113 Framily 00:36:50 3
114 TeamTeunis 00:36:47 2
115 Boevee 00:36:36 3
116 Doppers 00:36:35 4
117 JurreKnurre 00:36:29 2
118 De Dekkertjes 00:36:11 1
119 Captains Hoekstra 00:36:01 0
120 Newcourts 00:36:01 3
121 Louise & Mike 00:35:54 10
122 De waalie 00:35:52 3
123 De Hurms 00:35:38 1
124 De domme koeien 00:35:36 0
125 GBMans 00:35:32 1
126 Huis440 00:35:28 0
127 De Knulletjes 00:35:18 4
128 Schapenkoppen 00:35:06 2
129 Bouwhuisjes+oma 00:35:01 0
130 Harte-Spijker 00:34:59 7
131 poel 00:34:50 3
132 De koele koes 00:34:42 4
133 De zwemmende eendjes 00:34:33 1
134 Nijpjes 00:34:27 12
135 De Mensinga's 00:34:25 3
136 DeBeren 00:34:09 4
137 SMTL 00:34:08 1
138 Oordjes 00:33:58 5
139 Majiti's 00:33:58 4
140 NPGvanDiemers 00:33:56 2
141 110 00:33:53 4
142 De Krakers 00:33:53 2
143 Warlegganteam NL 00:33:52 1
144 Team Ellende 00:33:49 3
145 Breaking Out 00:33:48 1
146 Niet te kisten 00:33:46 1
147 Puttenaren 00:33:44 2
148 The Streamers 00:33:38 9
149 Ladies Kruut 00:33:30 1
150 Wat is er aan de kwant 00:33:24 8
151 Heemskerk 00:33:17 9
152 de huismerels 00:33:11 7
153 Chantal's Angels 00:32:58 1
154 B100 00:32:57 0
155 Niet erg creatief 00:32:52 3
156 Toverdoosje 00:32:45 0
157 Bremmertjes 00:32:35 4
158 De zusters van BertJaap 00:32:32 2
159 Sleutelcode 00:32:29 1
160 Zwannies 00:32:27 5
161 TEMPVERM 00:32:16 6
162 Tishol 00:32:12 2
163 KILS 00:32:11 2
164 BadHairDay 00:32:02 1
165 Dewestfriezen 00:31:54 7
166 De Groene Buizerd 00:31:52 0
167 Sinqo H 00:31:44 3
168 De bijtjes🐝 00:31:34 11
169 De kwade vliegjes 00:31:32 2
170 The Highlanders 00:31:27 8
171 de Baaijvlaaiers 00:31:23 1
172 Vondertjes 00:31:20 0
173 De suppers ut Fryslan 00:31:12 6
174 De Keels 00:31:04 0
175 Symaes en Vander Linden 00:30:57 8
176 Jong&co 00:30:56 1
177 love box 00:30:48 0
178 Vrijspeciaal 00:30:45 1
179 Team 63 00:30:41 4
180 De hunebedden 00:30:23 0
181 De GilseSchans 00:30:20 7
182 Bellista 00:30:19 2
183 Mathoen 00:30:15 4
184 Familie Bolte 00:30:09 0
185 Stapelbed 00:30:09 2
186 Noordgeuzen 00:30:07 4
187 Gezellig 00:30:04 4
188 De pronkies 00:30:02 10
189 Christel60 00:30:02 4
190 Uniekegroep 00:30:02 3
191 Lala 00:29:58 6
192 Animatieteam kuierpad + Roderick en Niek 00:29:55 1
193 Team bollo 00:29:53 0
194 Degroot 00:29:48 1
195 Perdokkies 00:29:44 2
196 Non-Sukkies 00:29:43 5
197 De bende 00:29:37 8
198 Verploegies&Smilo 00:29:36 4
199 31ALPHA 00:29:32 2
200 De Snuggles 00:29:29 5
201 De Rolletjes 00:29:27 0
202 InvestigationCheck 00:29:10 0
203 WeetIkVeel 00:29:07 2
204 Binkies 00:28:35 8
205 De Konings 00:28:28 3
206 Moedig Voorwaarts 00:28:26 0
207 Lilydora 00:28:26 3
208 Chickies & Jordy 00:28:25 4
209 Coronettes 00:28:15 2
210 De Zilvervloot 00:28:15 1
211 Huipies 00:28:08 5
212 Coco bitches 00:28:07 9
213 Dijkstra 00:28:05 4
214 Tante Sjaan 00:28:03 3
215 MeijHutje 00:28:00 6
216 BeMaiWil 00:27:53 1
217 Segersen 00:27:47 2
218 De Diepgravers 00:27:44 3
219 Sirolf21 00:27:36 1
220 zooitje ongeregeld 00:27:36 4
221 Hotties 00:27:34 3
222 Limi 00:27:31 2
223 De Hottub 00:27:28 7
224 Kuipertjes😎 00:27:21 0
225 Ysbekkies 00:27:13 3
226 Boerhof 00:27:06 0
227 Schipper family 00:26:58 2
228 Faasjes 00:26:56 5
229 Havenhunters 00:26:55 8
230 Ome Jan 00:26:54 2
231 C&C 00:26:50 3
232 Wildenbeest 00:26:25 8
233 Familie van Dopperen 00:26:25 0
234 Helder 00:26:21 3
235 De Nijboertjes 00:26:13 4
236 Fam.Intveen 00:26:08 1
237 Op de camping! 00:26:07 3
238 De Nicolaaitjes 00:25:59 7
239 Alphen45 00:25:57 0
240 Gasjes 00:25:57 4
241 De Vippies 00:25:53 1
242 Ma Flodder 00:25:53 1
243 De Bellies 00:25:51 3
244 B&V 00:25:51 8
245 Schonewillegies 00:25:49 0
246 Coole gang 00:25:47 4
247 Nina's Crew 00:25:34 2
248 Aa 00:25:31 11
249 Fam Rinsma 00:25:31 0
250 Balkum de gekste 00:25:28 1
251 De Smurfen 00:25:23 3
252 De Klagerjasclub 00:25:22 5
253 Onderzoekers 00:25:20 1
254 De abners 00:25:08 0
255 De arme stakkers 00:25:04 0
256 Hendrik IV 00:25:04 0
257 VanDeNoodEenDeugd 00:24:50 5
258 Apenluiders 00:24:43 5
259 Braamkes 00:24:43 1
260 Du Lange 00:24:28 3
261 Maaskantjes 00:24:27 1
262 Kamer 237 00:24:17 9
263 ReRe 00:24:11 2
264 Familie kleinjan 00:24:04 0
265 Dongdong 00:24:02 3
266 de Japies 00:23:59 9
267 HACKERS 00:23:50 5
268 Berend botje 00:23:48 7
269 De Enkellikkers 00:23:46 0
270 Efawasa 00:23:43 7
271 Fang gang 00:23:41 5
272 Baud and the Prangers 00:23:26 1
273 De Heidi’s 00:23:26 9
274 Njord 00:23:26 5
275 Fc 12 minutes 00:23:15 1
276 Guardians of the galaxy 00:23:07 4
277 De B.O-veld bende 00:23:06 1
278 Chicka’s uit Twente 00:22:58 2
279 The bomb 00:22:51 0
280 Faijdherbe 00:22:45 6
281 Kolkman! 00:22:44 11
282 De rare langers 00:22:40 3
283 Joke's posse 00:22:38 1
284 Leidyk 00:22:36 2
285 Eisco's 00:22:36 2
286 Liever te dik in de kist 00:22:31 1
287 Bikkers 00:22:23 4
288 Linda & Martin 00:22:23 4
289 VanSchootjes 00:22:14 11
290 Superspeurders 00:22:13 8
291 Vinkman 00:22:09 7
292 7 Koekoeks 00:22:09 0
293 Wei 00:22:08 3
294 groetjesvandeburen 00:22:05 9
295 Lenderink 00:22:02 1
296 Boschwachters 00:22:00 3
297 Westra 00:21:56 3
298 Langkawi 2 00:21:55 2
299 Taksi chauffeur 00:21:54 3
300 Compleet 00:21:43 1
301 Evelien en Daan 00:21:33 0
302 SjaMaPaCa 00:21:31 2
303 Bartje 00:21:24 3
304 Kesseltjes 00:21:23 1
305 Bart en Miriam 00:21:19 1
306 Spijkermannetjes 00:21:19 11
307 Waterpolitie 010 00:21:13 2
308 Teamwork kuierpad 00:21:12 12
309 Kuipertjes 00:21:11 4
310 Jomomabastis 00:21:10 4
311 Casa Peters 00:21:08 2
312 Bende van ellende 00:21:05 3
313 De Wiergo’s 00:21:05 3
314 Hioany 00:21:02 5
315 Hut(s) 321 00:20:59 6
316 Backstreet Boys 00:20:58 2
317 Fonsie 00:20:57 5
318 DjesModz 00:20:51 12
319 Van Tienen 00:20:45 1
320 KatrienDuckies 00:20:45 3
321 Bibimbap 00:20:41 1
322 Niensel 00:20:40 1
323 Smelikjes 00:20:40 1
324 Kwibus&co 00:20:39 1
325 DIJAMERK 00:20:37 6
326 Strating 00:20:36 2
327 Verheugen 00:20:33 4
328 Bossche Bollen 00:20:31 8
329 Visscher 00:20:31 3
330 High Elbow 00:20:30 1
331 Sijmons en co 00:20:30 5
332 Burgertjes 00:20:29 8
333 JJC en mama’s 00:20:26 9
334 Molenkater 00:20:24 4
335 De Slagers 00:20:20 2
336 WebStone 00:20:13 3
337 De 4 biggetjes 00:20:11 0
338 Hamoen 00:20:09 4
339 Tokkie’s 00:19:59 12
340 Smits 00:19:58 2
341 Mamaenzo 00:19:55 3
342 Happy campers 00:19:53 3
343 Booem 00:19:49 0
344 TIKTOKSQUAD 00:19:45 4
345 Fam Havering 00:19:44 1
346 202 00:19:37 2
347 Mulletjes 00:19:35 3
348 Buurtjes!! 00:19:33 0
349 Alle ballen op Royston 00:19:26 5
350 Wesseltjes 00:19:24 1
351 Piraten 00:19:18 5
352 KiSaTo Van MAC 00:19:09 1
353 De grote Kak 00:19:09 0
354 Voyageurs 00:19:03 1
355 Stresskippen 00:19:02 9
356 Rendiertjes 00:18:58 1
357 Dallies 00:18:56 6
358 Beekies 00:18:56 2
359 Carr 00:18:33 2
360 De Hermsehuis band 00:18:32 0
361 Leila 00:18:30 4
362 FC Pannenkoek 00:18:29 4
363 Wijker 00:18:28 7
364 Zus en co 00:18:28 3
365 the mirrors 00:18:26 5
366 MIRACA 00:18:24 3
367 Toors 00:18:20 12
368 De Boertjes 00:18:06 4
369 De puzzelaars 00:18:05 5
370 Beerze Rangers 00:17:50 2
371 DeVuggies5 00:17:47 9
372 Harold 00:17:37 9
373 peter en de koele kikkers 00:17:35 4
374 VandeRegen 00:17:33 4
375 Dejegerdingentjes 00:17:30 1
376 Lekkende balonnen 00:17:29 8
377 Poldermannen 00:17:28 0
378 Fanatiekelingen 00:17:21 3
379 D3Musketiers 00:17:17 1
380 Kinderman 00:17:17 2
381 Schut 00:17:14 0
382 DE RORO'S 00:17:13 3
383 Sikking 00:17:09 8
384 Koerselman 00:17:09 3
385 De 3 zoetjes 00:17:08 1
386 Bruss-apen 00:17:07 1
387 ZWELILOROFL 00:17:06 1
388 JCL 00:16:56 11
389 Reddingsboeien 00:16:49 4
390 Slopers 00:16:48 4
391 Warm 00:16:47 5
392 Peters 00:16:43 3
393 B&B 00:16:41 9
394 Raatelandjes 00:16:34 2
395 Kuuperties 00:16:33 4
396 Knibbelby 00:16:31 1
397 Tjommie 00:16:31 7
398 de Steentjes 00:16:27 2
399 Oversteegjes 00:16:18 6
400 Ruitertjes 00:16:13 0
401 Beilerbofkontjes 00:15:58 3
402 Oefoefoe’s 00:15:57 9
403 Reigâh 00:15:53 0
404 Tinyhousegang 00:15:49 10
405 Team Tuinbank 00:15:48 2
406 #Besties 00:15:47 0
407 Boze Belgen 00:15:47 2
408 Maakerwatvan 00:15:42 6
409 SterrenWorst 00:15:39 12
410 Galenkamp 00:15:39 2
411 De Wellentjes 00:15:27 0
412 Wounie 00:15:26 3
413 de Graaf 00:15:25 11
414 Ava 00:15:21 5
415 Koele klippers 00:15:19 6
416 B-722 00:15:16 6
417 The big 6 00:15:15 2
418 Aikes 00:15:15 3
419 De Teuters 00:15:12 2
420 Muisketiers 00:15:12 7
421 Familie Vermeer 00:15:11 1
422 Poeremetator 00:15:11 3
423 Charlie 00:15:08 2
424 Sneekjes 00:15:05 4
425 van Leeuwen Prutsers 00:15:05 4
426 klavertjevier 00:15:01 8
427 NOXOLOGEN 00:14:58 1
428 Bobingas 00:14:51 5
429 JanEnSophie 00:14:47 3
430 Team Floepie 00:14:41 3
431 De Raatgevers weten raad 00:14:35 2
432 208ers 00:14:35 2
433 Frandré 00:14:32 2
434 Paco 00:14:32 2
435 Dombos 00:14:31 3
436 WarSpoor 00:14:29 3
437 Fultonstraat 00:14:26 3
438 Jongdek 00:14:26 3
439 Plukkestijn 00:14:22 1
440 Girl power 00:14:17 4
441 DDMTJ 00:14:14 3
442 Burger 00:14:11 2
443 033 00:14:11 9
444 Team Roderick 00:14:10 1
445 Teambaby2022! 00:14:05 2
446 Klamer 00:14:04 0
447 Haringkoppen 00:13:55 4
448 Otters 00:13:48 4
449 Lisan 00:13:44 5
450 Pansier 00:13:40 8
451 De Pansyhansy's 00:13:38 2
452 Bevers 00:13:38 10
453 Tutti 00:13:37 5
454 Margaret60 00:13:37 2
455 M&L 00:13:30 2
456 Scharries 00:13:18 2
457 De Steentjes 00:13:17 7
458 De Ketraket 00:13:11 4
459 007 00:13:09 1
460 De Kassies 00:13:08 6
461 De spreeuwen 00:13:01 4
462 De vier vosjes 00:12:57 1
463 Heijden 00:12:54 2
464 #TeamZuurkool 00:12:54 6
465 Jacku 00:12:53 3
466 Lekkere wijven 00:12:53 6
467 De Snelle Bananen 00:12:41 5
468 Sissies 00:12:36 6
469 Lammetjes 00:12:36 4
470 Bridges & Co 00:12:34 3
471 Louwe Family 00:12:30 0
472 VersluisRotterdam 00:12:30 1
473 Aapie&draakie 00:12:29 1
474 De winnaars 00:12:28 6
475 Janjansendekinderen 00:12:26 3
476 Ellerbroekies 00:12:23 1
477 Halimaanrilote 00:12:22 2
478 Team Pony 00:12:21 3
479 Wognumse faalhazen 00:12:16 6
480 Postomaatjes 00:12:11 3
481 The perfect mix 00:12:11 3
482 blokdinnies 00:12:06 7
483 Kwakkenvos 00:12:04 3
484 List & bedrog 00:12:02 2
485 Betsy 00:12:00 9
486 van Bodegraven 00:12:00 12
487 Mulderinho's 00:11:57 4
488 escapies 00:11:57 5
489 Ezelstad 00:11:55 3
490 Pull My Finger 00:11:54 2
491 De Vogelaartjes 00:11:45 7
492 Fam Smit 00:11:37 2
493 MOLECATEN 2022 00:11:37 2
494 De F16s 00:11:36 1
495 Bende van ellende 2022 00:11:32 7
496 Kruisjes 00:11:27 8
497 Gento’s 00:11:23 2
498 Wietse en Els 00:11:22 4
499 Druktemakers 00:11:22 2
500 Witte Wijfjes 00:11:20 1
501 De Kamelenrijders 00:11:16 2
502 DonenMaris 00:11:11 2
503 Groep 5 00:11:08 12
504 Berend Botje 666 00:11:06 2
505 PLAETENAEREN 00:11:03 6
506 Bouwmeester 00:11:01 3
507 CasadelGancho 00:10:53 3
508 De Hangbuikzwijntjes 00:10:53 0
509 De Plekkenpolletjes 00:10:53 7
510 the Rabbits 00:10:50 5
511 Lm 00:10:48 4
512 DeJagerz 00:10:47 5
513 Nieuwehuisjes 00:10:43 6
514 JETI 00:10:38 6
515 Aardappelen in blik 00:10:35 4
516 Tollies 00:10:35 5
517 Kruitjes 00:10:35 1
518 Caittaathalathal 00:10:31 0
519 Fan Flodder 00:10:28 1
520 Schipsep 00:10:26 0
521 Fantasie uit Overdinkel 00:10:25 0
522 MiranChris 00:10:21 2
523 De Boerkes 00:10:19 2
524 Houtense Hunters 00:10:16 2
525 Oons moe 00:10:15 2
526 De Hetty's 00:10:15 2
527 The gold diggers 00:10:08 4
528 hippoo en kikker 00:10:02 4
529 F.L.A.M. 00:10:01 2
530 De Machies 00:09:54 7
531 C&A 00:09:49 2
532 Jongkies 00:09:38 5
533 AltUndNeu 00:09:33 12
534 Rema 00:09:32 2
535 Harmsie 00:09:30 5
536 Velema 00:09:27 0
537 De kampioenen 00:09:26 1
538 Stollies 00:09:22 1
539 Outjes 00:09:18 2
540 TukTuks 00:09:13 2
541 De Snellies 00:09:12 7
542 LUKENS 00:09:11 7
543 Fam. Lambermont 00:09:08 2
544 Hendriksen 00:08:53 1
545 Maters hotline 00:08:51 1
546 Meulenrabbitmeer 00:08:50 4
547 Inspector Gadget 2.0 21 00:08:50 3
548 Foute gasten 00:08:43 2
549 Flanellen Willetje 00:08:38 5
550 Bollo Fanclub 00:08:37 4
551 Lewerissa 00:08:31 8
552 Vredenbregt 00:08:30 4
553 Dipshitties 00:08:30 5
554 Slowliving 00:08:28 2
555 MWSK 00:08:28 8
556 speurneusjanssen 00:08:22 4
557 Sarino dames 00:08:20 0
558 Pip&Puk 00:08:17 8
559 Team kist 00:08:14 1
560 Jens is jarig 00:08:14 8
561 Sasjormad 00:08:07 11
562 De struis 00:08:03 9
563 Kaaijts 00:08:03 3
564 DeKrakers 00:08:02 4
565 Fundering 00:07:59 6
566 Peter is Beter 00:07:43 0
567 Welling 00:07:41 1
568 Hoi 00:07:40 2
569 Dory 00:07:37 7
570 Westerhaar1 00:07:37 0
571 De escapers 00:07:36 3
572 Agent109 00:07:35 10
573 kapiteinLieke 00:07:33 4
574 De van Opstalletjes 00:07:33 6
575 Stelma 00:07:31 11
576 Arkeeijks 00:07:26 2
577 Hoofdkantoor vlinder 2 00:07:24 10
578 Louwtjes 00:07:22 2
579 Alpaca 00:07:20 7
580 Groep Awkward 00:07:18 0
581 Kaasknabbeltjes 00:07:12 5
582 Koenen-gang 00:07:09 5
583 Lana’s chicks 00:07:03 3
584 Oetje toetjes 00:07:01 2
585 De bende van Oss 00:07:01 8
586 LiefAmmy 00:07:01 12
587 De bomhofjes/Vijgjes 00:07:00 6
588 Kromkamp 00:06:55 0
589 BUL 00:06:51 9
590 Wieggers433 00:06:47 8
591 Pirates of carrabean 00:06:41 9
592 Annemijn slaapt 00:06:41 6
593 Joost mag het weten 00:06:38 7
594 twee keer rechts een keer links 00:06:36 0
595 MaNaTiLiLa 00:06:36 4
596 Stoere fase 00:06:35 4
597 bolletjes 00:06:29 5
598 Kootjes 00:06:23 5
599 Cor's angels 00:06:21 8
600 The Escape Artists 00:06:17 2
601 BOLLO 00:06:13 3
602 Masterminds 00:06:13 4
603 De Waardtjes met Appel 00:06:11 3
604 Barney's 00:06:08 7
605 Schaapjes 00:06:07 3
606 Zwahili 00:06:06 0
607 YOUPIE 00:06:06 6
608 Boumaatjes 00:06:05 12
609 BiZunder 00:06:00 5
610 Simmerdeis 00:05:56 4
611 Van Bollies 00:05:51 4
612 Glitterdrollen 00:05:50 4
613 De Starke 5 00:05:47 5
614 Nylo’s bbgs❤️🥺 00:05:45 8
615 Blokkies 00:05:45 12
616 wintersportsmall 00:05:42 5
617 ‘n Krul 00:05:29 0
618 Vugts 00:05:25 3
619 Feestje72 00:05:24 5
620 Rcn 00:05:18 1
621 Tolsma gebroed & co 00:05:17 2
622 OK-Bitches 00:05:09 6
623 De smikkelbeertjes 00:05:02 6
624 de Alblasjes Detectives 00:04:54 12
625 Dubbelsafe 00:04:54 4
626 Wasbo’s 00:04:51 5
627 HugodeGroot 00:04:48 1
628 Het mysterie van de haven 00:04:43 1
629 Wurffies 00:04:42 4
630 Steenberg 00:04:39 11
631 JIPST 00:04:38 3
632 HR LHPO 00:04:31 0
633 Plantjes 00:04:28 7
634 Buffels 00:04:27 9
635 rudolf de king 00:04:21 4
636 Dekcheng 00:04:19 3
637 De Voorsluijsjes 00:04:19 9
638 sewtahani 00:04:18 10
639 deGraaf 00:04:16 12
640 Kokshoorn 00:04:11 4
641 The Secret Hunters 00:04:11 4
642 Zoniet, dan toch 00:04:10 8
643 Berk 00:04:05 5
644 Detectives Die en Buh 00:04:02 1
645 De Valkies 00:03:56 8
646 De Schippers 00:03:55 5
647 Klabbertjes 00:03:54 4
648 Moltman 00:03:52 1
649 Kreekies 00:03:48 8
650 Pouweltjes 00:03:43 3
651 fam.Roeling 00:03:34 2
652 Van Triggies 00:03:33 8
653 Klaar weer... 00:03:32 0
654 bijlkooten 00:03:32 11
655 Ain’t no mountain high enough 00:03:30 1
656 The Clue Crew 00:03:29 4
657 LR 00:03:28 11
658 De Eekhoorntjes 00:03:23 5
659 Nelson Mandela 00:03:21 1
660 Oeno en de rest 00:03:19 1
661 Anhajofe 00:03:16 5
662 Kapitein Onderbroek 00:03:09 4
663 Amendt 00:03:07 12
664 Snoensels 00:03:05 0
665 BultEef 00:03:02 4
666 Papagaai61 00:02:59 4
667 Berg 00:02:58 12
668 Nijen🏠 00:02:58 4
669 Nachtuiltjes 00:02:58 4
670 Team Putten 00:02:58 5
671 Escape Derckies 00:02:52 3
672 De Tebbertjes 00:02:47 3
673 Hilau 00:02:46 2
674 TJMS 00:02:45 8
675 203 00:02:42 4
676 Geen idee 00:02:40 3
677 Kleine Ijsbeer 00:02:31 5
678 Misty en de Detectives 00:02:26 7
679 403 00:02:23 7
680 De Reddertjes 00:02:23 8
681 De Dikkels 00:02:23 3
682 Ouwerkerkjes 00:02:23 4
683 De broemende Gerrie's 00:02:20 7
684 Penning 00:02:19 6
685 De slimme vogels 00:02:18 10
686 Buithorst 00:02:09 11
687 Jurgen 00:02:08 12
688 Thomas2.0 00:02:02 6
689 De Boompiepers 00:02:02 3
690 Klein Wassink 00:02:02 3
691 Kluskes 00:02:01 3
692 de beste lammies 00:01:58 0
693 Wielewaal 00:01:57 7
694 LEFF 00:01:51 5
695 Van Dijk 00:01:42 3
696 Leeuwtjes 00:01:38 5
697 Possie 00:01:31 4
698 ZIGGYS GANG 00:01:30 12
699 T L Koef 00:01:28 4
700 Bakvissen 00:01:27 11
701 5 Musketiers 00:01:25 7
702 Joep & Co 00:01:22 5
703 The final braincell 00:01:22 8
704 Popkens 00:01:20 4
705 De Nollies 00:01:19 4
706 De Grimmies 00:01:18 3
707 Kooijtjes 00:01:17 2
708 Disco fever 00:01:07 3
709 De Familie Leeuwen 00:01:06 10
710 2/3 ter Schure + koude kant 00:01:05 8
711 De Fidders 00:01:05 4
712 SmiemiesDenHaag 00:01:02 6
713 Hemelvaart2021 00:01:01 5
714 Boersma&co 00:01:01 7
715 Soesclub 00:01:01 10
716 plasjes 00:00:55 5
717 Wie in de haven? 00:00:49 6
718 Gommers 00:00:40 4
719 Hanse Heultie 00:00:39 6
720 Sjan 00:00:38 4
721 VBK 00:00:37 6
722 MoobLockPower 00:00:34 4
723 BlubBlub 00:00:30 6
724 HuisjesCol 00:00:29 8
725 Piratenhiernaast 00:00:28 12
726 De Wielies! 00:00:26 4
727 Drie musketiers 00:00:26 5
728 sas en mark 00:00:13 1
729 De salamanders 00:00:11 3
730 ekkelties 00:00:08 7
731 Taeko’s 00:00:07 4
732 Grolsch United 00:00:07 5
733 Flodders 00:00:04 8
734 Smeerkerkies 00:00:03 2
735 Het buikorakel 00:00:00 12
736 Van der Linden 00:00:00 11
737 De Bergjes 00:00:00 7
738 De spijkerhaven 00:00:00 6
739 Maasjes 00:00:00 7
740 Rodel 00:00:00 10
741 De uitglijders 00:00:00 5
742 pink santa 00:00:00 1
743 Gekke Sweersjes 00:00:00 9
744 Radij 00:00:00 12
745 Lange Cremertjes 00:00:00 12
746 De oepies 00:00:00 7
747 Juffertjes 00:00:00 10
748 Stokxies 00:00:00 3
749 Luc 00:00:00 5
750 DieVanHuisje333 00:00:00 7
751 Speurs 00:00:00 9
752 Bruggen 00:00:00 9
753 De stoere codekrakers 00:00:00 6
754 tije en de rest 00:00:00 7
755 Benbo 00:00:00 6
756 Het kan friezen het kan dooien 00:00:00 9
757 Kok-Duif 00:00:00 3
758 K2 00:00:00 7
759 Maatjes 00:00:00 6
760 Lottijn 00:00:00 8
761 VakantieClub99 00:00:00 12
762 Stone Squad 00:00:00 2
763 De inbrekers 00:00:00 10
764 Billy de hond 00:00:00 8
765 The Winners 00:00:00 7
766 De Dombo,s 00:00:00 2
767 De Bultjes 00:00:00 6
768 Veekenwintaltijd 00:00:00 10
769 Kaas 00:00:00 7
770 Manage Rensen 00:00:00 7
771 De twee musketiers 00:00:00 9
772 The dogs 00:00:00 12
773 Bird 00:00:00 7
774 De voetballers 00:00:00 8
775 De Nelissen Masters 00:00:00 9
776 Hato 00:00:00 7
777 Bruinberg 00:00:00 4
778 Poldervaartjes 00:00:00 9
779 Famklein 00:00:00 9
780 Linschoters 00:00:00 3
781 De toppers 00:00:00 7
782 Tony and Ezekiel 00:00:00 11
783 De Gerrits 00:00:00 6
784 de dordtsche schappenkoppen 00:00:00 4
785 team sylvester 00:00:00 3
786 De wessels 00:00:00 10
787 Levi van kuijk 00:00:00 4
788 Ijsvogel265 00:00:00 9
789 Eaca 00:00:00 7
790 De Woutertjes 00:00:00 6
791 FjFj 00:00:00 9
792 Team Kops 00:00:00 9
793 Oelewappers 00:00:00 5
794 Wiebeltenen 00:00:00 7
795 Bouman 00:00:00 9
796 Team Kuipers 00:00:00 11
797 Brinknorg 00:00:00 5
798 Craats 00:00:00 8
799 The Bossies 00:00:00 11
800 De amigo's 00:00:00 5
801 Zusjes Huizer 00:00:00 6
802 Arie 00:00:00 8
803 De Melkjes 00:00:00 1
804 DJ Swiep 00:00:00 5
805 MVV Bro 00:00:00 10
806 Team MARIJEE050 00:00:00 6
807 Slimpe 00:00:00 10
808 Rotterdam 00:00:00 5
809 Spelletjesgekken 00:00:00 1
810 Lely Astronaut 00:00:00 0
811 GruitBlom176 00:00:00 12
812 Detectives Maij 00:00:00 7
813 Schmitties 00:00:00 6
814 De Bommeltjes 00:00:00 6
815 Stoffels 00:00:00 6
816 Pepsi 00:00:00 12
817 Auke 00:00:00 2
818 De Abcouboys and girls 00:00:00 11
819 Blieje mollies 00:00:00 11
820 Jokers 00:00:00 6
821 Koolmeesjes 00:00:00 11
822 De Vries 329 00:00:00 11
823 Floortjes4 00:00:00 11
824 Van Dalen 00:00:00 6
825 Lenieminie 00:00:00 11
826 Eisma 00:00:00 11
827 Beerze! 00:00:00 7
828 De bootjes 00:00:00 6
829 Girlpower 00:00:00 3
830 De Plattelandjes 00:00:00 8
831 Frank 00:00:00 6
832 Korenhaan079 00:00:00 12
833 Stromannetjes 00:00:00 9
834 delangetjes 00:00:00 9
835 De gangster kikkers 00:00:00 3
836 De Ontdekkers 00:00:00 6
837 Meivakantie 00:00:00 6
838 noegie noegie 00:00:00 11
839 Bovengemiddeld 00:00:00 7
840 de Berkelaars 00:00:00 5
841 spek en bonen 00:00:00 8
842 De Buutsies 00:00:00 3
843 TiSu 00:00:00 3
844 JessTho 00:00:00 2
845 't Zwarte Geld 00:00:00 2
846 Lurkies 00:00:00 5
847 Kooitjes 00:00:00 4
848 Rolf 00:00:00 10
849 VeenBoer 00:00:00 9
850 De Ijsvogels 00:00:00 9
851 Bende van 4 00:00:00 7
852 Kip 00:00:00 7
853 De gekste 00:00:00 5
854 IJff-power 00:00:00 8
855 Duikbrillenclub 00:00:00 8
856 Ruizendaal 00:00:00 5
857 De Satisfyers 00:00:00 7
858 Tabarelli4 00:00:00 2
859 208 00:00:00 5
860 Luclynnisa 00:00:00 12
861 Sevens 00:00:00 12
862 vdboogaart_heeze 00:00:00 2
863 Anatoliy 00:00:00 4
864 Blommetjes 00:00:00 5
865 Koopman 00:00:00 8
866 Nijmodijk 00:00:00 9
867 Tijmboektoe 00:00:00 0
868 The Ozzies 00:00:00 8
869 Kroeze 00:00:00 2
870 Monnickendammers 00:00:00 8
871 nederend 00:00:00 12
872 Aardbeien 00:00:00 4
873 00:00:00 10
874 Captain SpackJarrow 00:00:00 6
875 Veenvell 00:00:00 11
876 veenvell 00:00:00 3
877 VanAken 00:00:00 7
878 Kechies 00:00:00 0
879 Snepvangers 00:00:00 9
880 Schneidertjes 00:00:00 0
881 LiFloSaMen 00:00:00 12
882 MoBaInRu 00:00:00 3
883 De Bolle Bollo’s 00:00:00 5
884 Schreursjes 00:00:00 12
885 Mystery M’s 00:00:00 8
886 Gezelligheid op Coldenhove 00:00:00 9
887 Meijer 00:00:00 0
888 Jaapenlusanne 00:00:00 10
889 De Coole Kippen 00:00:00 4
890 Plantebakjes 00:00:00 0
891 Spijker6 00:00:00 8
892 De-Bingo-Winners 00:00:00 7
893 Team Sneek 00:00:00 6
894 CasperDekkers! 00:00:00 7
895 Werffie's 00:00:00 4
896 De Super Pika’s 00:00:00 9
897 De stolkse boertjes 00:00:00 4
898 De 713-tjee 00:00:00 0
899 De Tuintjes 00:00:00 5
900 Team Lucas 00:00:00 3
901 hazelaar 00:00:00 8
902 Bakker 00:00:00 8
903 Team Gijs 00:00:00 10
904 Krukken 00:00:00 9
905 De Minnetjes 00:00:00 3
906 De eendjes 00:00:00 5
907 Brabo's 00:00:00 10
908 Koele Kikkers 00:00:00 11
909 De Ra BN ers 00:00:00 3
910 Bastiaansen 00:00:00 6
911 De Boompjes 00:00:00 0
912 Huiskampies 00:00:00 2
913 Loedermoeders 00:00:00 6
914 FriteRia 00:00:00 0
915 De emmy's 00:00:00 8
916 Bosaventuriers 00:00:00 12
917 GOONIENEE 00:00:00 4
918 Hazen & Wezels 00:00:00 3
919 Zinger-Reiber 00:00:00 9
920 Biggies 00:00:00 2
921 Partyanimals 00:00:00 0
922 Kanters 00:00:00 1
923 Goudou 00:00:00 4
924 42 00:00:00 10
925 Team-o 00:00:00 1
926 Familie ratjetoe 00:00:00 7
927 Dirven 00:00:00 5
928 Familie Betting 00:00:00 4
929 Josefien10 00:00:00 1
930 Malaga 00:00:00 2
931 Unlock 00:00:00 2
932 Team sombrero bos hé 00:00:00 5
933 Jo 00:00:00 3
934 8 BALL 00:00:00 6
935 Roel&Irma 00:00:00 3
936 De Ruchti's 00:00:00 6
937 SuperSanne 00:00:00 7
938 LPower 00:00:00 11
939 FLOVAR 00:00:00 5
940 Atz32 00:00:00 8
941 Kleef 00:00:00 7
942 Wolfslag 00:00:00 12
943 Bar & Jenn 00:00:00 8
944 Roelofsen&co 00:00:00 0
945 de Kwartels 00:00:00 1
946 The Black purrrrr 00:00:00 4
947 Team Sammie 00:00:00 3
948 Smitoverweghekmanpas 00:00:00 1
949 BB33 00:00:00 0
950 De lemelaars 00:00:00 6
951 Huisjes 00:00:00 7
952 The beagles 00:00:00 1
953 Wij laten ons niet kisten 00:00:00 1
954 Bussink Power 00:00:00 4
955 Odd squad 00:00:00 9
956 Goof&Co 00:00:00 3
957 Eijkjes 00:00:00 9
958 De krakers 00:00:00 10
959 Hollandscheveld 00:00:00 5
960 Het blauwe leger ESD 00:00:00 4
961 Hangover 4 00:00:00 3
962 Pro's 00:00:00 3
963 Team Smeets 00:00:00 7
964 Fromthemountain 00:00:00 2
965 Minkeisjarig 00:00:00 1
966 De beugels 00:00:00 5
967 De 9 musketiers 00:00:00 6
968 Portugaaltjes 00:00:00 5
969 Bartels 00:00:00 2
970 Bartels1 00:00:00 0
971 Vennik 00:00:00 2
972 Loenatiks 00:00:00 4
973 Brak 00:00:00 4
974 Badertjes 00:00:00 9
975 KelDar 00:00:00 4
976 Lovebirds 00:00:00 11
977 Boskampies 00:00:00 11
978 Ninjago 00:00:00 11
979 Pino’s 00:00:00 7
980 Balzak 00:00:00 4
981 Landal 00:00:00 12
982 Strampel 00:00:00 7
983 stevens 00:00:00 6
984 De Rakkers 00:00:00 6
985 Pasenclub2021 00:00:00 9
986 Planet rose 00:00:00 7
987 Duutshoffies 00:00:00 3
988 Swennies 00:00:00 8
989 K3 00:00:00 8
990 De boompjes 00:00:00 12
991 Wellmansjes 00:00:00 12
992 Pijffers 00:00:00 5
993 Stumpers 00:00:00 5
994 Netzogek 00:00:00 8
995 Wietsmokertje 00:00:00 8
996 FamilyM 00:00:00 5
997 Sander en Nienke 00:00:00 10
998 Patatje 00:00:00 2
999 Camping 00:00:00 6
1000 Iepies 00:00:00 8
1001 De kleine leeuwtjes 00:00:00 8
1002 RabbitHillJM 00:00:00 3
1003 Varkenssanne 00:00:00 1
1004 De kolkies 00:00:00 8
1005 Bitches 00:00:00 3
1006 Geheime agenten 00:00:00 4
1007 Huisje59 00:00:00 2
1008 De Smitties 00:00:00 2
1009 Texeltje 00:00:00 7
1010 NiLiMiNiLiMi 00:00:00 10
1011 MasterTeam 00:00:00 3
1012 Rotterdammers 00:00:00 8
1013 Blackies 00:00:00 6
1014 James Blond 00:00:00 12
1015 Weertjes 00:00:00 5
1016 DePosthoeve 00:00:00 4
1017 geen leuke familie 00:00:00 4
1018 Laajan 00:00:00 8
1019 Diagnaze 00:00:00 5
1020 Carpenters 00:00:00 8
1021 The Boyz 00:00:00 4
1022 Family105 00:00:00 5
1023 Jaxi 00:00:00 8
1024 The Boys 00:00:00 8
1025 Eilandjes 00:00:00 6
1026 Poortvliet 00:00:00 8
1027 BuEen 00:00:00 3
1028 De muisjes venema 00:00:00 1
1029 De Kramers & Robin 00:00:00 6
1030 Lamers225 00:00:00 6
1031 knuppels 00:00:00 3
1032 De 713-tjes 00:00:00 12
1033 Mastopjes 00:00:00 10
1034 Klokkie 00:00:00 11
1035 FamBijloo 00:00:00 4
1036 Wichertjes 00:00:00 0
1037 The V-Team 00:00:00 3
1038 Mesmetsucces! 00:00:00 6
1039 Malle Henkie 00:00:00 4
1040 De Brouwertjes 00:00:00 5
1041 The Rebbels 00:00:00 3
1042 HAJ hkz zld 00:00:00 8
1043 De Rielse beulen 00:00:00 9
1044 Kasseltjes 00:00:00 11
1045 Fam Poortman 00:00:00 2
1046 De speurneuzen 00:00:00 5
1047 Berend botjes 00:00:00 8
1048 Veneklaas 00:00:00 12
1049 Christmasteam 00:00:00 6
1050 valkjes 00:00:00 10
1051 De cocaïne hunters 00:00:00 6
1052 Lammerts van Bueren 00:00:00 5
1053 Eekhoorn715 00:00:00 5
1054 De Joopies 00:00:00 5
1055 Kuikentjes 00:00:00 5
1056 De bitterballen 00:00:00 3
1057 Dijkxhoorn 00:00:00 6
1058 Liertjes 00:00:00 11
1059 Zaalberg 00:00:00 5
1060 Overbeekjes 00:00:00 4
1061 Masterluuk 00:00:00 9
1062 Kersten 00:00:00 12
1063 De Doorentjes 00:00:00 3
1064 Nieuwkomers 00:00:00 11
1065 De zes van S 00:00:00 12
1066 Powerpannenkoeks 00:00:00 11
1067 KNALA 00:00:00 5
1068 Dupoint 00:00:00 9
1069 Team steenuil 00:00:00 5
1070 PitoKnerpie 00:00:00 9
1071 TijnIse 00:00:00 7
1072 Tiellie-Roetie 00:00:00 7
1073 Jacobs Struik 00:00:00 12
1074 Speklepjes 00:00:00 12
1075 De sjippies 00:00:00 4
1076 SVEH 00:00:00 3
1077 Flikken Zeeland 00:00:00 10
1078 Welages 00:00:00 6
1079 Jorrie 00:00:00 5
1080 Schoutjes 00:00:00 3
1081 Vjennekloetn 00:00:00 5
1082 Cf 00:00:00 2
1083 FamilieGerdes 00:00:00 6
1084 Commanders 00:00:00 3
1085 Escape de Wit 00:00:00 6
1086 Super Zwaap 00:00:00 11
1087 De veluwe 00:00:00 6
1088 Make that the cat wise 00:00:00 6
1089 Fam van de Pavert 00:00:00 8
1090 Veenstra klungels 00:00:00 7
1091 Het boeit mij niks 00:00:00 6
1092 Triest 00:00:00 10
1093 De bergjes 00:00:00 11
1094 Wijnberg 00:00:00 12
1095 De pekelders 00:00:00 10
1096 De Kolhekjes 00:00:00 7
1097 Nu wel 00:00:00 2
1098 Prutsers 00:00:00 0
1099 Team Nijenkampies 00:00:00 11
1100 FF 00:00:00 0
1101 JJ 00:00:00 8
1102 De Pioniers 00:00:00 7
1103 Schoorl&co 00:00:00 7
1104 Svenpapa 00:00:00 9
1105 Hart&Koek 00:00:00 9
1106 Kampeerders 00:00:00 9
1107 NOAD 00:00:00 10
1108 Tuinstra 00:00:00 11
1109 LTK 00:00:00 4
1110 FC Max 00:00:00 6
1111 BeersMill 00:00:00 0
1112 Walletjes 00:00:00 8
1113 De Ruijtenbergies 00:00:00 4
1114 310 00:00:00 8
1115 Reddingstas 00:00:00 3
1116 MirMar 00:00:00 6
1117 Boelies 00:00:00 6
1118 Klunder 00:00:00 10
1119 t'veen 00:00:00 5
1120 GoldenGirls_* 00:00:00 2
1121 De doedels 00:00:00 5
1122 De Witjes 00:00:00 8
1123 Broer van dijk 00:00:00 4
1124 Verbrugge 00:00:00 9
1125 Ties 00:00:00 9
1126 Schummi's 00:00:00 6
1127 Laserkit 00:00:00 6
1128 Casa Kaasje 00:00:00 4
1129 Ruessink 00:00:00 8
1130 Patjanstantho 00:00:00 11
1131 Weuke pankenken 00:00:00 9
1132 De Counter Pounters 00:00:00 7
1133 Maissan 00:00:00 6
1134 Happy familie 00:00:00 2
1135 PELLETJES 00:00:00 4
1136 TILBO’S 00:00:00 3
1137 De Bende van Ellende 00:00:00 8
1138 De Haantjes 00:00:00 6
1139 WiWiWu 00:00:00 4
1140 070ers 00:00:00 7
1141 Houdini 00:00:00 6
1142 Daphne & Yoran 00:00:00 1
1143 Duo Lijo 00:00:00 10
1144 Janssen 00:00:00 11
1145 Dreistein 00:00:00 4
1146 De Bobi’s 2.0 00:00:00 12
1147 De Roze olifant 00:00:00 9
1148 Lizzy 00:00:00 5
1149 Loopy Lions 00:00:00 0
1150 Dupger 00:00:00 2
1151 HulseggeBulties 00:00:00 4
1152 Groep 2 00:00:00 0
1153 Janneke en matthijs 00:00:00 5
1154 Peller 00:00:00 5
1155 Scholten 00:00:00 2
1156 fam Kleinjan 00:00:00 4
1157 Polmo 00:00:00 4
1158 De Nozems 00:00:00 11
1159 DeGraaf 00:00:00 4
1160 De baaltjes 00:00:00 10
1161 Stippie en Strepie 00:00:00 6
1162 Wokko&Plonty 00:00:00 8
1163 Kiren 00:00:00 6
1164 Fam.Schellekens 00:00:00 8
1165 Bollo327 00:00:00 12
1166 AapSchaap 00:00:00 9
1167 Fam Deelen 00:00:00 8
1168 de lollypops 00:00:00 5
1169 De chicas 00:00:00 11
1170 Splintertjes 00:00:00 1
1171 Limoenje 00:00:00 9
1172 Molsnollen 00:00:00 5
1173 Van de Gruppies 00:00:00 8
1174 The Big Brains 00:00:00 7
1175 Kloot 00:00:00 8
1176 Carrem 00:00:00 8
1177 Chickenladies 00:00:00 11
1178 de Kleijntjes 00:00:00 5
1179 Nieuwenkampjes 00:00:00 9
1180 Kruijsjes 00:00:00 6
1181 #teamLangedijk 00:00:00 3
1182 lol masters 00:00:00 12
1183 De Drostjes 00:00:00 2
1184 Dijkjes 00:00:00 6
1185 De Oplossers 00:00:00 1
1186 Hero’s 00:00:00 0
1187 Knuf&Co 00:00:00 8
1188 The 8 team 00:00:00 12
1189 EEKHOORN 00:00:00 11
1190 DeMatrozen 00:00:00 2
1191 De Panapadders 00:00:00 3
1192 Brandwel 00:00:00 9
1193 Sennes trots 00:00:00 3
1194 Scheper2.0 00:00:00 8
1195 De Bosmannetjes 00:00:00 5
1196 Kimme Santie 00:00:00 5
1197 Snoepjes 00:00:00 1
1198 The Browns 00:00:00 2
1199 Admiraaltjes 00:00:00 12
1200 Fam. Looij 00:00:00 10
1201 Schootjes 00:00:00 7
1202 Fissa 00:00:00 10
1203 Smeding 00:00:00 11
1204 Offringgons 00:00:00 2
1205 De knallende vijf 00:00:00 11
1206 Foxie Team 00:00:00 6
1207 Hamerslag 00:00:00 9
1208 Martena 00:00:00 6
1209 Fam. Villerius 00:00:00 7
1210 Brinkies 00:00:00 6
1211 De eekhoorns 00:00:00 7
1212 DeOnderkinnen 00:00:00 2
1213 Spruotjes 00:00:00 0
1214 De Jongetjes 00:00:00 8
1215 DDN Hattem 00:00:00 5
1216 De scheetjes 00:00:00 4
1217 50 plus Petra 3-3 00:00:00 12
1218 Lars & Lars 00:00:00 5
1219 Duuk2021 00:00:00 5
1220 De 4 musketiers 00:00:00 10
1221 De Lama's 00:00:00 5
1222 Veerhunters 00:00:00 7
1223 BIKE 00:00:00 7
1224 De terpjes 00:00:00 9
1225 De politiegroep 00:00:00 4
1226 Feniks2 00:00:00 10
1227 Feniks 00:00:00 0
1228 Sander & Kimberley 00:00:00 10
1229 Huisje25 00:00:00 6
1230 Dijksma 00:00:00 12
1231 Bouvies7 00:00:00 7
1232 De Valkjes 00:00:00 1
1233 Vosjes 00:00:00 2
1234 Tenbrinkjes 00:00:00 10
1235 De leeuwtjes 00:00:00 7
1236 Lagemaat35 00:00:00 12
1237 mumimisi 00:00:00 10
1238 Liever te dik in de .... 00:00:00 2
1239 Layla's butlers 00:00:00 7
1240 de Bruijn 00:00:00 8
1241 Floortjes 00:00:00 5
1242 De eekhoorn 00:00:00 10
1243 Dokters Beard 00:00:00 3
1244 Bavianen Wijlens 00:00:00 12
1245 Yvonne&Nienke 00:00:00 6
1246 Schouten 00:00:00 6
1247 Langkawi 00:00:00 0
1248 Johejo 00:00:00 5
1249 SB escape team 00:00:00 4
1250 Veenendaaltjes 00:00:00 2
1251 Vogel 00:00:00 5
1252 Janine+maris 00:00:00 0
1253 DE FRANSWATJES 00:00:00 3
1254 Lensies 00:00:00 2
1255 Reinders 00:00:00 3
1256 Team Rob de Ruiter 00:00:00 5
1257 royco 00:00:00 1
1258 Westerinkjes 00:00:00 4
1259 The Flunx 00:00:00 10
1260 de vandaaltjes 00:00:00 6
1261 Banboekids 00:00:00 8
1262 Brouwer 00:00:00 12
1263 Kokken 00:00:00 12
1264 vandermeeralma 00:00:00 11
1265 Piemels253 00:00:00 8
1266 De reizigers 00:00:00 6
1267 JH 00:00:00 7
1268 Youpyoupyoup 00:00:00 0
1269 IJstaartjes 00:00:00 5
1270 Poeka’s 00:00:00 4
1271 Marcel en Lynn 00:00:00 4
1272 Hoogesteger 00:00:00 10
1273 Hartjes 00:00:00 6
1274 WES&FEM 00:00:00 6
1275 van den Bergjes 00:00:00 9
1276 Billy&Bollie 00:00:00 6
1277 Ynemaatjes 00:00:00 7
1278 De popcorn poppers 00:00:00 5
1279 Prinsjes 00:00:00 12
1280 Werfjes 00:00:00 12
1281 Mat 00:00:00 0
1282 RB&RB 00:00:00 0
1283 Hagels 00:00:00 4
1284 De Bekertjes 00:00:00 4
1285 Abcouwers 00:00:00 7
1286 Huisje77 00:00:00 7
1287 De Chickies 00:00:00 11
1288 Eekhoorntjes 00:00:00 3
1289 Snelle Brauny's 00:00:00 5
1290 Beushuis 00:00:00 0
1291 Viskraam 00:00:00 3
1292 josan 00:00:00 6
1293 Loetje 00:00:00 7
1294 Niet voor de poes 00:00:00 3
1295 BerlicumPernis 00:00:00 4
1296 Boermannetjes 00:00:00 9
1297 Fam. Power 00:00:00 8
1298 Boris BOEFJES 00:00:00 5
1299 Naccers 00:00:00 6
1300 Realna 00:00:00 5
1301 De Escape-aapjes 00:00:00 10
1302 De Gorties! 00:00:00 1
1303 De Pindakaasjes 00:00:00 4
1304 Autoservicekole 00:00:00 6
1305 De Lions 00:00:00 8
1306 Familieoost! 00:00:00 12
1307 OSG 00:00:00 4
1308 TheFamily 00:00:00 11
1309 Sundaymorning 00:00:00 8
1310 Kwizzwizz 00:00:00 1
1311 Team van Muijen 00:00:00 8
1312 Amsterdam West 00:00:00 10
1313 kabouters 00:00:00 10
1314 De Kr@kers 00:00:00 4
1315 Beukenootjes 00:00:00 4
1316 Goldies 00:00:00 5
1317 Eierpower 00:00:00 5
1318 Test 00:00:00 1
1319 Tobies 00:00:00 6
1320 Ritzerflits 00:00:00 6
1321 Bosjes 00:00:00 10
1322 Licky 00:00:00 7
1323 De Glasjes 00:00:00 5
1324 Erbera216 00:00:00 8
1325 ijtjes 00:00:00 2
1326 Het droomteam 00:00:00 10
1327 Oost 00:00:00 12
1328 Boekel//Gols 00:00:00 5
1329 Brownies 00:00:00 12
1330 HOLY TRINITY 00:00:00 9
1331 we laten ons niet kisten! 00:00:00 8
1332 Versteeg bv 00:00:00 10
1333 Korfies 00:00:00 5
1334 Droge worsten 00:00:00 5
1335 Limari 00:00:00 11
1336 Homburg 00:00:00 1
1337 Verbeekjes 00:00:00 11
1338 Klimmers min 1 00:00:00 8
1339 Familie van Waes 00:00:00 12
1340 Catering de Groot 00:00:00 3
1341 De Dikketives 00:00:00 8
1342 Luuk pro 00:00:00 6
1343 brisa 00:00:00 12
1344 Maasdammertjes 00:00:00 9
1345 222 00:00:00 8
1346 koppelhoentje 00:00:00 11
1347 Bende van Ellende 00:00:00 9
1348 Molletjes 00:00:00 0
1349 Jansen 00:00:00 4
1350 Mysterie W51 00:00:00 7
1351 Ouderkerkjes 00:00:00 9
1352 Zeewolde 00:00:00 3
1353 Denkers 00:00:00 2
1354 Jimmy 00:00:00 6
1355 De geheimzinnige club 00:00:00 4
1356 KAAS 00:00:00 4
1357 Sukkels 00:00:00 7
1358 Vasco 00:00:00 5
1359 The Bugs 00:00:00 8
1360 Fredjes 00:00:00 8
1361 de Kuikentjes 00:00:00 6
1362 - 00:00:00 4
1363 Spierenburgclan 00:00:00 7
1364 Sjanies 00:00:00 3
1365 Huisnummer 68 00:00:00 6
1366 La Familia 00:00:00 5
1367 Harem 00:00:00 5
1368 Camping tokkies 00:00:00 12
1369 Animatie team Kuierpad 2021 00:00:00 2
1370 Hatseflats 00:00:00 12
1371 De gompies 00:00:00 11
1372 Zeeuwtjes 00:00:00 9
1373 Flipsen 00:00:00 6
1374 Roggeveenstreetjes 00:00:00 9
1375 Klos 00:00:00 8
1376 Hhw072 00:00:00 7
1377 Siek & Krul 00:00:00 4
1378 zwijnen 00:00:00 3
1379 FIOD 00:00:00 4
1380 Lonzo 00:00:00 4
1381 Half seuvm 00:00:00 4
1382 JarigeJoost 00:00:00 1
1383 De onesies 00:00:00 10
1384 Friesland 00:00:00 6
1385 De douane 00:00:00 10
1386 Malden's Hoop 00:00:00 6
1387 Yin14jaar 00:00:00 8
1388 Boel 00:00:00 9
1389 VdH 00:00:00 10
1390 De Kort Kanjers 00:00:00 4
1391 Codekrakers 00:00:00 10
1392 Stello 00:00:00 12
1393 515 JACUZZIHOUSE 00:00:00 8
1394 Leussink 00:00:00 4
1395 Tedd 00:00:00 4
1396 Krooijkjes 00:00:00 11
1397 Brem 00:00:00 10
1398 Plusjes 00:00:00 9
1399 Team escape BRS 00:00:00 10
1400 Boyoos 00:00:00 5
1401 Souren 00:00:00 6
1402 Kalka 00:00:00 11
1403 Kistslopers 00:00:00 6
1404 Utnaaiers en utbukers 00:00:00 8
1405 Penamalo 00:00:00 6
1406 De Buurtjes 00:00:00 3
1407 De Gerdaas 00:00:00 4
1408 wilbie 00:00:00 8
1409 FAM VD KOLK 00:00:00 4
1410 De brunies 00:00:00 4
1411 Grootenleeuw 00:00:00 9
1412 MaLiNyJo 00:00:00 8
1413 De dijkjes 00:00:00 11
1414 Remco en Esther 00:00:00 12
1415 De Hermansjes 00:00:00 7
1416 Hoogeveen 00:00:00 5
1417 De kukelekuutjes 00:00:00 12
1418 Golden Gangsters 119 00:00:00 3
1419 Die DELLER-Kids 00:00:00 6
1420 De pilspiraten 00:00:00 5
1421 Postma 00:00:00 12
1422 FreePuck 00:00:00 5
1423 Hallinkies 00:00:00 2
1424 Voorentjes 00:00:00 2
1425 De Kroontjes 00:00:00 12
1426 De jojo’s 00:00:00 12
1427 Jet en de oudjes 00:00:00 8
1428 De theekopjes 00:00:00 12
1429 MEPCLRY 00:00:00 6
1430 De teletubbies 00:00:00 1
1431 Mama’s en de papa’s 00:00:00 6
1432 De Krakende Kakkers 00:00:00 8
1433 Team Fokkers 00:00:00 4
1434 Team Worstebroodjes 00:00:00 7
1435 Jonkman 00:00:00 11
1436 Fam Rutten 00:00:00 4
1437 Baldadige hennies 00:00:00 9
1438 Fighters 00:00:00 1
1439 Klutertjes 00:00:00 7
1440 De pernukkels 00:00:00 10
1441 Heusies 00:00:00 12
1442 Veltkamp 00:00:00 11
1443 De Baarsjes 00:00:00 6
1444 Club Lindenburg 00:00:00 4
1445 Brookovich 00:00:00 12
1446 Yuki 00:00:00 4
1447 Genieters 00:00:00 5
1448 Wetserparkduifjes 00:00:00 0
1449 Peeterskes 00:00:00 3
1450 Gerrit & Kim 00:00:00 8
1451 DeMulders 00:00:00 11
1452 De elsbeek 00:00:00 10
1453 Smitne 00:00:00 4
1454 van Houtjes 821 00:00:00 4
1455 Marencis 00:00:00 8
1456 Hokkies 00:00:00 2
1457 Aardbei 00:00:00 4
1458 Amsterdam gang 00:00:00 8
1459 FEMELIE-H 00:00:00 8
1460 Uil 00:00:00 10
1461 Dekkertjes 00:00:00 10
1462 Boersmaatjes 00:00:00 12
1463 Nijsingh 00:00:00 7
1464 Appeltje biertje 00:00:00 12
1465 NOAH 00:00:00 11
1466 Kolibri 00:00:00 8
1467 Moleman 00:00:00 5
1468 Enweerdoor 00:00:00 6
1469 Henkies 00:00:00 7
1470 3 Musketiers 00:00:00 11
1471 Wappies 00:00:00 2
1472 Pluusjes01 00:00:00 12
1473 Vlotte mwannen 00:00:00 4
1474 DORGST! 00:00:00 9
1475 Halfje Wit 00:00:00 8
1476 Bryan 00:00:00 2
1477 De Bundy's 00:00:00 8
1478 Tafka282 00:00:00 3
1479 Snelle janne 00:00:00 4
1480 De groene koetjes 00:00:00 12
1481 JoLaMiMa 00:00:00 3
1482 Cageman 00:00:00 12
1483 De aardappels 00:00:00 12
1484 AVLK 00:00:00 2
1485 Bijna slim 00:00:00 1
1486 Tokkies uit Monnickendam 00:00:00 12
1487 Hunters 00:00:00 12
1488 ramona 00:00:00 12
1489 De Wappies 00:00:00 5
1490 Unglaublich 00:00:00 11
1491 De Nachtegaaltjes 00:00:00 2
1492 kollies 00:00:00 1
1493 Noukies 00:00:00 8
1494 De 3 musketiers 00:00:00 7
1495 Kiekieks 00:00:00 2
1496 qwerty 00:00:00 4
1497 Vosco 00:00:00 5
1498 SnelMil 00:00:00 5
1499 Noorderboertjes 00:00:00 5
1500 TeamKreutzer 00:00:00 3
1501 The harbor detectives 00:00:00 8
1502 Vliegende mossels 00:00:00 1
1503 Cheesypop 00:00:00 4
1504 Molke-444 00:00:00 7
1505 De hoekschewaarders 00:00:00 5
1506 Kill the piñata 00:00:00 6
1507 Betty en patty 00:00:00 10
1508 DIEZE 00:00:00 9
1509 Piraten 00:00:00 8
1510 Klomp 00:00:00 10
1511 Elpies 00:00:00 11
1512 Team Valerie 00:00:00 3
1513 Langeberg 00:00:00 5
1514 Team kaya 00:00:00 5
1515 Veenestars 00:00:00 2
1516 3 coolste BFF’S 00:00:00 7
1517 Sherlock Hoos 00:00:00 4
1518 Dream team 00:00:00 3
1519 Roversbende 00:00:00 7
1520 Depoep 00:00:00 6
1521 Huisje305 00:00:00 7
1522 De smints 00:00:00 8
1523 Kloostertjes 00:00:00 12
1524 The Jacobs Family 00:00:00 7
1525 Sharks 00:00:00 4
1526 Snorlax 00:00:00 10
1527 Het is gezelliger zonder joey en tom 00:00:00 0
1528 KWEC 00:00:00 10
1529 SUSSYBAKA's 00:00:00 2
1530 PjÖtterclan 00:00:00 2
1531 Pannenkoeken 00:00:00 3
1532 Gare Gerries 00:00:00 0
1533 Vermeulentjes 00:00:00 11
1534 Hovestadjes 00:00:00 10
1535 Berkstok 00:00:00 3
1536 Benkies 00:00:00 10
1537 Spruitjes4724 00:00:00 3
1538 Koekoek 00:00:00 6
1539 Wijnland 00:00:00 5
1540 3Xwijnen 00:00:00 6
1541 Vetflikkers 00:00:00 2
1542 The Flugels 00:00:00 5
1543 Troostelingen 00:00:00 3
1544 Fuck de corona 00:00:00 0
1545 Robbedoes & Co 00:00:00 5
1546 2gether 00:00:00 6
1547 Boda 00:00:00 4
1548 Arends 00:00:00 8
1549 Dikke mieke 00:00:00 4
1550 Beleven avontuur 00:00:00 12
1551 Team Megchelen 00:00:00 6
1552 Zusters en zwagers 00:00:00 6
1553 Van Marion 00:00:00 8
1554 Team krab 00:00:00 12
1555 Wiebe60 00:00:00 5
1556 Havenzangers 00:00:00 4
1557 De Slotties 00:00:00 5
1558 De vries 00:00:00 9
1559 Mais 00:00:00 2
1560 De Bhattoetjes 00:00:00 5
1561 Koekwauze 00:00:00 1
1562 Boeltjes 00:00:00 8
1563 Rupertjes 00:00:00 5
1564 C 00:00:00 4
1565 Escape Squad 00:00:00 11
1566 Ummy gang 00:00:00 5
1567 Bafaar 00:00:00 5
1568 Smarties 00:00:00 2
1569 De Sminkjes 00:00:00 9
1570 lolmans 00:00:00 8
1571 Bakx 00:00:00 2
1572 aerdts 00:00:00 3
1573 Kerstig 00:00:00 6
1574 Zijlstra Bolsward 00:00:00 8
1575 De Paupers 00:00:00 4
1576 Dappere dodo 00:00:00 3
1577 Kluijtjes 00:00:00 5
1578 Vossen 00:00:00 12
1579 Lasange 00:00:00 8
1580 Vakantiegangers 00:00:00 2
1581 Franken 00:00:00 7
1582 De kraanvogels 00:00:00 8
1583 De 402 club 00:00:00 8
1584 Braampies 00:00:00 6
1585 Voogies 00:00:00 12
1586 De bonte ridders 00:00:00 8
1587 Postjes 00:00:00 8
1588 Snollebollekes 00:00:00 7
1589 Team Babyballa 00:00:00 4
1590 Sterrehiem 00:00:00 8
1591 Oudjes 00:00:00 4
1592 De Zwemmers 00:00:00 7
1593 De Gibanelclub 00:00:00 4
1594 Chaos 00:00:00 12
1595 Bosch 00:00:00 0
1596 NewYearsEve2021 00:00:00 5
1597 scottuutnham 00:00:00 4
1598 Elly 00:00:00 3
1599 B-Team 00:00:00 0
1600 De Engineers 00:00:00 2
1601 fam souverehren 00:00:00 2
1602 Kleinjan 00:00:00 1
1603 Waddenzee 00:00:00 0
1604 Poortvlietjes 00:00:00 9